Location: Sungai Igah
(2.7333°N, 114.2500°E)
Time: 12:12:49
(UTC+00:00)

Cosmos 1125 Rocket - Pass Details

Date: 14 June 2021
Orbit: 757 x 780 km, 74.0° (Epoch: 04 August)

Event Time Altitude Azimuth Distance (km) Brightness Sun altitude
Rises 21:40:16 0° 325° (NW) 3,235 6.6 -8.8°
Reaches altitude 10° 21:43:00 10° 313° (NW) 2,314 5.8 -8.2°
Maximum altitude 21:47:15 25° 258° (WSW) 1,517 4.5 -7.2°
Drops below altitude 10° 21:51:33 10° 203° (SSW) 2,328 5.6 -6.2°
Sets 21:54:20 0° 190° (S) 3,259 6.4 -5.6°
